Home   Weather   Texarkana   Past weeks
Flag for USA

Past Weather in Texarkana, Arkansas, USA — Yesterday and Last 2 Weeks

Now
68 °F

Clear.


Feels Like: 68 °F
Forecast: 87 / 69 °F
Wind: No wind

Location: Texarkana Regional-Webb Field

Current Time: Jun 18, 2019 at 4:05:37 am

Latest Report: Jun 18, 2019 at 2:53 am


Visibility: 9 mi

Pressure: 29.90 "Hg

Humidity: 93%

Dew Point: 66 °F

Location of TexarkanaLocation

Past Weather in Texarkana — Graph

°F

Texarkana Temperature Yesterday

Maximum temperature yesterday: 82 °F (at 2:53 pm)
Minimum temperature yesterday: 66 °F (at 2:53 am)
Average temperature yesterday: 72 °F

High & Low Weather Summary for the Past Weeks

 TemperatureHumidityPressure
High91 °F (Jun 15, 3:53 pm)100% (Jun 3, 9:53 pm)30.20 "Hg (Jun 3, 9:53 pm)
Low59 °F (Jun 11, 5:53 am)29% (Jun 13, 4:53 pm)29.65 "Hg (Jun 6, 6:53 pm)
Average75 °F76%29.92 "Hg
* Reported Jun 3 2:53 am — Jun 18 2:53 am, Texarkana. Weather by CustomWeather, © 2019

Note: Actual official high and low records may vary slightly from our data, if they occured in-between our weather recording intervals... More about our weather records

Advertising

Texarkana Weather History for the Previous 24 Hours

Scroll right to see more
 ConditionsComfort  
Time TempWeatherWind HumidityBarometerVisibility
2:53 am
Tue, Jun 18
68 °FClear.No wind93%29.90 "Hg9 mi
1:53 am70 °FPassing clouds.No wind90%29.91 "Hg10 mi
12:53 am69 °FClear.No wind93%29.90 "Hg8 mi
11:53 pm
Mon, Jun 17
70 °FClear.No wind93%29.90 "Hg10 mi
10:53 pm71 °FClear.No wind90%29.90 "Hg10 mi
9:53 pm73 °FClear.No wind88%29.88 "Hg10 mi
8:53 pm73 °FClear.No wind88%29.86 "Hg10 mi
7:53 pm80 °FSunny.No wind62%29.85 "Hg10 mi
6:53 pm81 °FPartly sunny.3 mph60%29.85 "Hg10 mi
5:53 pm81 °FScattered clouds.6 mph60%29.86 "Hg10 mi
4:53 pm82 °FScattered clouds.5 mph60%29.87 "Hg10 mi
3:53 pm82 °FOvercast.6 mph58%29.88 "Hg10 mi
2:53 pm82 °FOvercast.7 mph58%29.89 "Hg10 mi
1:53 pm81 °FPartly sunny.6 mph58%29.91 "Hg10 mi
12:53 pm81 °FSunny.8 mph58%29.92 "Hg10 mi
11:53 am79 °FPartly sunny.14 mph60%29.93 "Hg10 mi
10:53 am76 °FOvercast.6 mph67%29.93 "Hg10 mi
9:53 am75 °FPartly sunny.3 mph71%29.92 "Hg10 mi
8:53 am71 °FMostly cloudy.7 mph84%29.92 "Hg10 mi
8:41 am71 °FMore clouds than sun.6 mph84%29.93 "Hg10 mi
8:27 am70 °FPartly sunny.5 mph90%29.92 "Hg10 mi
8:13 am69 °FBroken clouds.5 mph90%29.92 "Hg10 mi
7:53 am68 °FPartly sunny.3 mph93%29.91 "Hg10 mi
6:49 am66 °FFog.6 mph96%29.90 "Hg3 mi
6:42 am66 °FFog.6 mph96%29.92 "Hg1 mi
6:08 am66 °FFog.No wind96%29.90 "Hg1 mi
5:36 am66 °FFog.No wind96%29.91 "Hg2 mi
4:53 am66 °FFog.No wind96%29.88 "Hg5 mi
4:00 am67 °FMostly cloudy.3 mph97%29.89 "Hg8 mi
Weather by CustomWeather, © 2019

See weather overview